Regional Weather Roundup
Issued by NWS Cleveland, OH

Home | Current Version | Previous Version | Graphics & Text | Print | Product List | Glossary On
Versions: 1 2 3 4 5 6 7 8 9 10 11 12 13 14 15 16 17 18 19 20 21 22 23 24 25 26 27 28 29 30 31 32 33 34 35 36 37 38 39 40 41 42 43 44 45 46 47 48 49 50
000
ASUS41 KCLE 300102
RWRCLE
OHIO REGIONAL WEATHER ROUNDUP
NATIONAL WEATHER SERVICE CLEVELAND, OH
900 PM EDT SUN MAR 29 2015

NOTE: "FAIR" INDICATES FEW OR NO CLOUDS BELOW 12,000 FEET WITH NO
SIGNIFICANT WEATHER AND/OR OBSTRUCTIONS TO VISIBILITY.

OHZ001>008-015>018-024>027-034-035-043-044-300200-
   NORTHWEST OHIO

CITY           SKY/WX    TMP DP  RH WIND       PRES   REMARKS
DEFIANCE       CLOUDY    41  27  57 SW17G23   29.87F
FINDLAY        LGT RAIN  40  29  64 SW22G37   29.91R
TOLEDO EXPRESS CLOUDY    41  23  48 S20G30    29.86F
TOLEDO EXEC    CLOUDY    42  24  49 SW17G32   29.88F
LIMA           LGT RAIN  40  29  64 S14       29.92R
$$

OHZ009>014-019>023-028>033-038-089-300200-
   NORTHEAST OHIO

CITY           SKY/WX    TMP DP  RH WIND       PRES   REMARKS
CLE-HOPKINS    CLOUDY    43  13  29 S15G28    29.92F
CLE-LAKEFRONT  CLOUDY    45  12  26 S20G29    29.90F
CUY CO. ARPT   CLOUDY    45  14  29 SW17G29   29.90F
LORAIN-ELYRIA  CLOUDY    42  17  36 S15       29.90S
ASHTABULA      CLOUDY    40  17  39 S16G26    29.92F
AKRON-CANTON   CLOUDY    43  10  26 S15       29.94S
WOOSTER        CLOUDY    42  14  32 S20G30    29.92F
MANSFIELD      CLOUDY    40  25  55 SW32G41   29.92R
YOUNGSTOWN     CLOUDY    40  16  37 S13G20    29.96R
$$

OHZ042-051>053-060>062-070>072-077>081-300200-
  SOUTHWEST OHIO

CITY           SKY/WX    TMP DP  RH WIND       PRES   REMARKS
CINC-COVINGTON LGT RAIN  49  26  41 S12       29.94F
CINC-LUNKEN    LGT RAIN  50  22  33 S9        29.96F
HAMILTON       LGT RAIN  46  32  58 S5        29.94F
DAYTON         LGT RAIN  41  34  76 SW7       29.95R
WRIGHT-PAT AFB LGT RAIN  42  34  75 SW8       29.95R
DAYTON GENERAL LGT RAIN  47  27  45 S15G25    29.92F
WILMINGTON     LGT RAIN  46  25  43 SW21G38   29.94F
$$

OHZ036-037-039>041-045>050-054>059-063>069-073>076-082>088-300200-
  CENTRAL AND SOUTHEAST OHIO

CITY           SKY/WX    TMP DP  RH WIND       PRES   REMARKS
COLUMBUS       CLOUDY    44  21  40 S18G25    29.99R
OSU AIRPORT    LGT RAIN  42  24  49 S17G33    29.95S
BOLTON FIELD   NOT AVBL
RICKENBACK AFB NOT AVBL
NEWARK         CLOUDY    46  15  28 S20G28    29.97S
MARION         LGT RAIN  39  28  64 SW20G32   29.95R
LANCASTER      LGT RAIN  46  17  31 SW25G40   29.99R
ZANESVILLE     LGT RAIN  44  13  28 S13G24    29.98S
NEW PHILLY     CLOUDY    46   9  22 S9        29.96F
$$



USA.gov is the U.S. government's official web portal to all federal, state and local government web resources and services.